This is the latest recevied weather packets stored in our database for station/object N5ATR. If no packets are shown the sender has not sent any weather packets the latest 10 day(s).
| Time | Temp. | Humidity | Pressure | Rain* | Wind** | Luminosity | Snow |
|---|---|---|---|---|---|---|---|
| 1788214216 | 26.11° C | 39% | 1021.9 hPa | 0 mm | - | 100 W/m² | - |
| 1788213911 | 30.56° C | 32% | 1021.9 hPa | 0 mm | - | 183 W/m² | - |
| 1788213606 | 30° C | 35% | 1021.8 hPa | 0 mm | - | 550 W/m² | - |
| 1788213301 | 30° C | 34% | 1021.8 hPa | 0 mm | - | 606 W/m² | - |
| 1788212997 | 28.33° C | 36% | 1021.8 hPa | 0 mm | - | 608 W/m² | - |
| 1788212695 | 27.78° C | 39% | 1021.7 hPa | 0 mm | - | 537 W/m² | - |
| 1788212390 | 30° C | 36% | 1022.2 hPa | 0 mm | - | 405 W/m² | - |
| 1788212087 | 28.89° C | 36% | 1022 hPa | 0 mm | - | 329 W/m² | - |
| 1788211787 | 30° C | 36% | 1022.4 hPa | 0 mm | - | 229 W/m² | - |
| 1788211483 | 28.89° C | 36% | 1022.3 hPa | 0 mm | - | 627 W/m² | - |
| 1788211183 | 30.56° C | 33% | 1022.5 hPa | 0 mm | - | 659 W/m² | - |
| 1788210878 | 29.44° C | 35% | 1022.5 hPa | 0 mm | - | 686 W/m² | - |
| 1788210577 | 28.89° C | 37% | 1022.6 hPa | 0 mm | - | 659 W/m² | - |
| 1788210273 | 28.89° C | 36% | 1022.3 hPa | 0 mm | - | 682 W/m² | - |
| 1788209969 | 28.89° C | 36% | 1022.5 hPa | 0 mm | - | 644 W/m² | - |
| 1788209664 | 29.44° C | 35% | 1022.5 hPa | 0 mm | - | 694 W/m² | - |
| 1788209359 | 28.89° C | 36% | 1022.5 hPa | 0 mm | - | 672 W/m² | - |
| 1788209058 | 28.89° C | 36% | 1022.8 hPa | 0 mm | - | 693 W/m² | - |
| 1788208758 | 28.33° C | 38% | 1022.8 hPa | 0 mm | - | 629 W/m² | - |
| 1788208452 | 29.44° C | 35% | 1022.6 hPa | 0 mm | - | 591 W/m² | - |
| 1788208151 | 28.33° C | 36% | 1022.8 hPa | 0 mm | - | 738 W/m² | - |
| 1788207846 | 28.33° C | 36% | 1022.9 hPa | 0 mm | - | 619 W/m² | - |
| 1788207546 | 28.89° C | 35% | 1022.9 hPa | 0 mm | - | 747 W/m² | - |
| 1788207244 | 27.78° C | 38% | 1023 hPa | 0 mm | - | 702 W/m² | - |
| 1788206941 | 29.44° C | 35% | 1023.1 hPa | 0 mm | - | 767 W/m² | - |
* Rain latest hour (hover to see other rain measurements)
** Current wind speed in m/s (hover to see current wind gust speed)